Time,TemperatureF,DewpointF,PressureIn,WindDirection,WindDirectionDegrees,WindSpeedMPH,WindSpeedGustMPH,Humidity,HourlyPrecipIn,Conditions,Clouds,dailyrainin,SoftwareType,DateUTC
2013-01-23 00:02:00,43.0,41.0,30.22,North,0,0.0,0.0,91,0.00,,,0.00,Meteo,2013-01-23 05:02:00,
2013-01-23 00:03:00,43.0,41.0,30.22,North,0,0.0,0.0,91,0.00,,,0.00,Meteo,2013-01-23 05:03:00,
2013-01-23 00:05:00,43.0,41.0,30.22,North,0,0.0,0.0,91,0.00,,,0.00,Meteo,2013-01-23 05:05:00,
2013-01-23 00:07:00,43.0,41.0,30.22,North,0,0.0,0.0,91,0.00,,,0.00,Meteo,2013-01-23 05:07:00,
2013-01-23 00:12:00,43.0,41.0,30.22,North,0,0.0,0.0,91,0.00,,,0.00,Meteo,2013-01-23 05:12:00,
2013-01-23 00:18:00,43.0,41.0,30.22,North,0,0.0,0.0,92,0.00,,,0.00,Meteo,2013-01-23 05:18:00,
2013-01-23 00:23:00,43.0,41.0,30.22,North,0,0.0,0.0,92,0.00,,,0.00,Meteo,2013-01-23 05:23:00,
2013-01-23 00:28:00,43.0,41.0,30.22,North,0,0.0,0.0,92,0.00,,,0.00,Meteo,2013-01-23 05:28:00,
2013-01-23 00:29:00,43.0,41.0,30.22,North,0,0.0,0.0,92,0.00,,,0.00,Meteo,2013-01-23 05:29:00,
2013-01-23 00:33:00,43.0,41.0,30.22,North,0,0.0,0.0,92,0.00,,,0.00,Meteo,2013-01-23 05:33:00,
2013-01-23 00:39:00,43.0,41.0,30.22,North,0,0.0,0.0,92,0.00,,,0.00,Meteo,2013-01-23 05:39:00,
2013-01-23 00:44:00,43.0,41.0,30.22,North,0,0.0,0.0,93,0.00,,,0.00,Meteo,2013-01-23 05:44:00,
2013-01-23 00:49:00,43.0,41.0,30.22,NNE,17,1.0,2.0,93,0.00,,,0.00,Meteo,2013-01-23 05:49:00,
2013-01-23 00:54:00,43.0,41.0,30.22,North,0,0.0,0.0,94,0.00,,,0.00,Meteo,2013-01-23 05:54:00,
2013-01-23 00:59:00,44.0,42.0,30.22,NNE,17,1.0,2.0,94,0.00,,,0.00,Meteo,2013-01-23 05:59:00,
2013-01-23 01:04:00,44.0,42.0,30.22,North,0,0.0,0.0,94,0.00,,,0.00,Meteo,2013-01-23 06:04:00,
2013-01-23 01:09:00,44.0,42.0,30.22,North,0,0.0,0.0,94,0.00,,,0.00,Meteo,2013-01-23 06:09:00,
2013-01-23 01:14:00,44.0,42.0,30.22,North,0,0.0,0.0,94,0.00,,,0.00,Meteo,2013-01-23 06:14:00,
2013-01-23 01:19:00,44.0,42.0,30.22,North,0,0.0,0.0,94,0.00,,,0.00,Meteo,2013-01-23 06:19:00,
2013-01-23 01:24:00,44.0,43.0,30.22,North,0,0.0,0.0,95,0.00,,,0.00,Meteo,2013-01-23 06:24:00,
2013-01-23 01:29:00,44.0,43.0,30.22,North,0,0.0,0.0,95,0.00,,,0.00,Meteo,2013-01-23 06:29:00,
2013-01-23 01:34:00,44.0,43.0,30.22,North,0,0.0,0.0,95,0.00,,,0.00,Meteo,2013-01-23 06:34:00,
2013-01-23 01:39:00,44.0,43.0,30.22,North,0,0.0,0.0,95,0.00,,,0.00,Meteo,2013-01-23 06:39:00,
2013-01-23 01:45:00,43.0,42.0,30.22,North,0,0.0,0.0,95,0.00,,,0.00,Meteo,2013-01-23 06:45:00,
2013-01-23 01:50:00,43.0,42.0,30.22,North,0,0.0,0.0,95,0.00,,,0.00,Meteo,2013-01-23 06:50:00,
2013-01-23 01:55:00,43.0,42.0,30.22,NNE,17,1.0,2.0,95,0.00,,,0.00,Meteo,2013-01-23 06:55:00,
2013-01-23 02:00:00,43.0,42.0,30.22,NNE,17,1.0,2.0,95,0.00,,,0.00,Meteo,2013-01-23 07:00:00,
2013-01-23 02:05:00,43.0,42.0,30.22,NNE,16,1.0,2.0,95,0.00,,,0.00,Meteo,2013-01-23 07:05:00,
2013-01-23 02:10:00,43.0,42.0,30.22,North,0,0.0,0.0,95,0.00,,,0.00,Meteo,2013-01-23 07:10:00,
2013-01-23 02:15:00,43.0,42.0,30.22,North,0,0.0,0.0,96,0.00,,,0.00,Meteo,2013-01-23 07:15:00,
2013-01-23 02:20:00,43.0,42.0,30.22,North,0,0.0,0.0,96,0.00,,,0.00,Meteo,2013-01-23 07:20:00,
2013-01-23 02:25:00,43.0,42.0,30.22,North,0,0.0,0.0,96,0.00,,,0.00,Meteo,2013-01-23 07:25:00,
2013-01-23 02:30:00,43.0,42.0,30.22,North,0,0.0,0.0,96,0.00,,,0.00,Meteo,2013-01-23 07:30:00,
2013-01-23 02:35:00,43.0,42.0,30.22,North,0,0.0,0.0,96,0.00,,,0.00,Meteo,2013-01-23 07:35:00,
2013-01-23 02:40:00,43.0,42.0,30.22,NNE,17,0.0,1.0,96,0.00,,,0.00,Meteo,2013-01-23 07:40:00,
2013-01-23 02:45:00,42.0,41.0,30.22,North,0,0.0,0.0,96,0.00,,,0.00,Meteo,2013-01-23 07:45:00,
2013-01-23 02:50:00,42.0,41.0,30.22,NNE,17,1.0,2.0,96,0.00,,,0.00,Meteo,2013-01-23 07:50:00,
2013-01-23 02:55:00,42.0,41.0,30.22,North,11,1.0,1.0,97,0.00,,,0.00,Meteo,2013-01-23 07:55:00,
2013-01-23 03:00:00,42.0,41.0,30.23,North,0,0.0,0.0,97,0.00,,,0.00,Meteo,2013-01-23 08:00:00,
2013-01-23 03:05:00,42.0,41.0,30.23,North,11,0.0,2.0,97,0.00,,,0.00,Meteo,2013-01-23 08:05:00,
2013-01-23 03:10:00,42.0,41.0,30.23,North,0,0.0,0.0,97,0.00,,,0.00,Meteo,2013-01-23 08:10:00,
2013-01-23 03:15:00,42.0,41.0,30.23,North,0,0.0,0.0,97,0.00,,,0.00,Meteo,2013-01-23 08:15:00,
2013-01-23 03:20:00,42.0,41.0,30.23,North,0,0.0,0.0,97,0.00,,,0.00,Meteo,2013-01-23 08:20:00,
2013-01-23 03:25:00,42.0,41.0,30.23,North,11,1.0,2.0,97,0.00,,,0.00,Meteo,2013-01-23 08:25:00,
2013-01-23 03:30:00,41.0,40.0,30.23,North,0,0.0,0.0,97,0.00,,,0.00,Meteo,2013-01-23 08:30:00,
2013-01-23 03:35:00,41.0,40.0,30.23,North,0,0.0,0.0,97,0.00,,,0.00,Meteo,2013-01-23 08:35:00,
2013-01-23 03:40:00,41.0,40.0,30.23,North,0,0.0,0.0,97,0.00,,,0.00,Meteo,2013-01-23 08:40:00,
2013-01-23 03:45:00,41.0,40.0,30.23,North,11,1.0,2.0,97,0.00,,,0.00,Meteo,2013-01-23 08:45:00,
2013-01-23 03:50:00,41.0,40.0,30.23,North,5,1.0,2.0,97,0.00,,,0.00,Meteo,2013-01-23 08:50:00,
2013-01-23 03:55:00,41.0,40.0,30.23,North,352,2.0,3.0,97,0.00,,,0.00,Meteo,2013-01-23 08:55:00,
2013-01-23 04:00:00,41.0,40.0,30.23,North,352,2.0,2.0,97,0.00,,,0.00,Meteo,2013-01-23 09:00:00,
2013-01-23 04:05:00,41.0,40.0,30.24,NNW,346,1.0,3.0,97,0.00,,,0.00,Meteo,2013-01-23 09:05:00,
2013-01-23 04:10:00,41.0,40.0,30.24,NNW,346,2.0,3.0,97,0.00,,,0.00,Meteo,2013-01-23 09:10:00,
2013-01-23 04:15:00,41.0,40.0,30.24,NNW,347,2.0,4.0,98,0.00,,,0.00,Meteo,2013-01-23 09:15:00,
2013-01-23 04:20:00,42.0,41.0,30.24,NNW,346,2.0,5.0,98,0.00,,,0.00,Meteo,2013-01-23 09:20:00,
2013-01-23 04:25:00,42.0,41.0,30.24,NNW,348,2.0,2.0,97,0.00,,,0.00,Meteo,2013-01-23 09:25:00,
2013-01-23 04:30:00,42.0,41.0,30.24,North,0,0.0,0.0,97,0.00,,,0.00,Meteo,2013-01-23 09:30:00,
2013-01-23 04:35:00,42.0,41.0,30.24,North,351,1.0,3.0,96,0.00,,,0.00,Meteo,2013-01-23 09:35:00,
2013-01-23 04:40:00,43.0,42.0,30.24,North,352,2.0,3.0,96,0.00,,,0.00,Meteo,2013-01-23 09:40:00,
2013-01-23 04:45:00,43.0,41.0,30.24,NNW,347,3.0,6.0,92,0.00,,,0.00,Meteo,2013-01-23 09:45:00,
2013-01-23 04:50:00,44.0,41.0,30.24,North,351,3.0,6.0,90,0.00,,,0.00,Meteo,2013-01-23 09:50:00,
2013-01-23 04:56:00,44.0,40.0,30.24,North,350,4.0,5.0,87,0.00,,,0.00,Meteo,2013-01-23 09:56:00,
2013-01-23 05:01:00,44.0,40.0,30.24,North,356,2.0,3.0,85,0.00,,,0.00,Meteo,2013-01-23 10:01:00,
2013-01-23 05:06:00,44.0,39.0,30.24,North,351,3.0,6.0,84,0.00,,,0.00,Meteo,2013-01-23 10:06:00,
2013-01-23 05:11:00,44.0,39.0,30.24,North,351,3.0,5.0,83,0.00,,,0.00,Meteo,2013-01-23 10:11:00,
2013-01-23 05:16:00,44.0,39.0,30.24,North,357,2.0,4.0,83,0.00,,,0.00,Meteo,2013-01-23 10:16:00,
2013-01-23 05:21:00,44.0,39.0,30.24,North,352,4.0,6.0,82,0.00,,,0.00,Meteo,2013-01-23 10:21:00,
2013-01-23 05:26:00,44.0,39.0,30.24,North,352,2.0,3.0,82,0.00,,,0.00,Meteo,2013-01-23 10:26:00,
2013-01-23 05:31:00,44.0,39.0,30.25,NNW,348,3.0,5.0,81,0.00,,,0.00,Meteo,2013-01-23 10:31:00,
2013-01-23 05:36:00,44.0,38.0,30.25,NNW,348,1.0,2.0,80,0.00,,,0.00,Meteo,2013-01-23 10:36:00,
2013-01-23 05:41:00,44.0,39.0,30.25,NNW,347,2.0,3.0,81,0.00,,,0.00,Meteo,2013-01-23 10:41:00,
2013-01-23 05:46:00,43.0,38.0,30.26,NNW,347,0.0,1.0,82,0.00,,,0.00,Meteo,2013-01-23 10:46:00,
2013-01-23 05:52:00,43.0,38.0,30.26,NNW,347,1.0,2.0,82,0.00,,,0.00,Meteo,2013-01-23 10:52:00,
2013-01-23 05:57:00,42.0,37.0,30.26,North,0,0.0,0.0,82,0.00,,,0.00,Meteo,2013-01-23 10:57:00,
2013-01-23 06:03:00,42.0,37.0,30.26,NNW,347,0.0,1.0,83,0.00,,,0.00,Meteo,2013-01-23 11:03:00,
2013-01-23 06:08:00,42.0,37.0,30.26,North,349,0.0,1.0,83,0.00,,,0.00,Meteo,2013-01-23 11:08:00,
2013-01-23 06:14:00,41.0,37.0,30.26,NNW,347,1.0,2.0,84,0.00,,,0.00,Meteo,2013-01-23 11:14:00,
2013-01-23 06:19:00,41.0,37.0,30.26,NNW,347,1.0,3.0,85,0.00,,,0.00,Meteo,2013-01-23 11:19:00,
2013-01-23 06:24:00,41.0,37.0,30.26,North,350,1.0,3.0,85,0.00,,,0.00,Meteo,2013-01-23 11:24:00,
2013-01-23 06:29:00,41.0,37.0,30.26,North,0,0.0,0.0,85,0.00,,,0.00,Meteo,2013-01-23 11:29:00,
2013-01-23 06:34:00,40.0,36.0,30.27,North,351,1.0,2.0,86,0.00,,,0.00,Meteo,2013-01-23 11:34:00,
2013-01-23 06:39:00,40.0,36.0,30.27,North,350,1.0,2.0,86,0.00,,,0.00,Meteo,2013-01-23 11:39:00,
2013-01-23 06:44:00,40.0,36.0,30.27,North,350,1.0,2.0,87,0.00,,,0.00,Meteo,2013-01-23 11:44:00,
2013-01-23 06:49:00,40.0,36.0,30.27,North,350,1.0,2.0,87,0.00,,,0.00,Meteo,2013-01-23 11:49:00,
2013-01-23 06:54:00,40.0,36.0,30.27,North,351,0.0,1.0,87,0.00,,,0.00,Meteo,2013-01-23 11:54:00,
2013-01-23 06:59:00,40.0,36.0,30.27,North,351,1.0,3.0,87,0.00,,,0.00,Meteo,2013-01-23 11:59:00,
2013-01-23 07:04:00,39.0,35.0,30.27,North,350,1.0,2.0,87,0.00,,,0.00,Meteo,2013-01-23 12:04:00,
2013-01-23 07:09:00,39.0,35.0,30.27,North,349,1.0,2.0,87,0.00,,,0.00,Meteo,2013-01-23 12:09:00,
2013-01-23 07:14:00,39.0,35.0,30.27,North,350,1.0,2.0,87,0.00,,,0.00,Meteo,2013-01-23 12:14:00,
2013-01-23 07:19:00,39.0,35.0,30.28,North,350,1.0,2.0,87,0.00,,,0.00,Meteo,2013-01-23 12:19:00,
2013-01-23 07:24:00,39.0,35.0,30.28,North,0,0.0,0.0,87,0.00,,,0.00,Meteo,2013-01-23 12:24:00,
2013-01-23 07:29:00,39.0,36.0,30.28,North,0,0.0,0.0,88,0.00,,,0.00,Meteo,2013-01-23 12:29:00,
2013-01-23 07:34:00,39.0,36.0,30.28,North,350,2.0,2.0,88,0.00,,,0.00,Meteo,2013-01-23 12:34:00,
2013-01-23 07:39:00,39.0,36.0,30.28,North,350,1.0,2.0,88,0.00,,,0.00,Meteo,2013-01-23 12:39:00,
2013-01-23 07:44:00,39.0,36.0,30.28,North,0,0.0,0.0,89,0.00,,,0.00,Meteo,2013-01-23 12:44:00,
2013-01-23 07:49:00,39.0,36.0,30.29,North,0,0.0,0.0,89,0.00,,,0.00,Meteo,2013-01-23 12:49:00,
2013-01-23 07:54:00,38.0,35.0,30.29,North,350,2.0,2.0,89,0.00,,,0.00,Meteo,2013-01-23 12:54:00,
2013-01-23 07:59:00,39.0,36.0,30.29,North,349,0.0,1.0,90,0.00,,,0.00,Meteo,2013-01-23 12:59:00,
2013-01-23 08:04:00,39.0,36.0,30.29,North,350,2.0,2.0,90,0.00,,,0.00,Meteo,2013-01-23 13:04:00,
2013-01-23 08:09:00,40.0,37.0,30.29,North,351,2.0,3.0,89,0.00,,,0.00,Meteo,2013-01-23 13:09:00,
2013-01-23 08:14:00,41.0,37.0,30.29,North,350,2.0,3.0,85,0.00,,,0.00,Meteo,2013-01-23 13:14:00,
2013-01-23 08:19:00,42.0,37.0,30.29,NNW,346,2.0,3.0,81,0.00,,,0.00,Meteo,2013-01-23 13:19:00,
2013-01-23 08:24:00,43.0,37.0,30.29,NNW,348,3.0,3.0,79,0.00,,,0.00,Meteo,2013-01-23 13:24:00,
2013-01-23 08:29:00,44.0,37.0,30.29,NNW,347,2.0,5.0,76,0.00,,,0.00,Meteo,2013-01-23 13:29:00,
2013-01-23 08:34:00,45.0,37.0,30.29,NNW,346,2.0,2.0,72,0.00,,,0.00,Meteo,2013-01-23 13:34:00,
2013-01-23 08:40:00,46.0,36.0,30.29,North,350,4.0,6.0,69,0.00,,,0.00,Meteo,2013-01-23 13:40:00,
2013-01-23 08:45:00,47.0,37.0,30.30,North,355,1.0,2.0,67,0.00,,,0.00,Meteo,2013-01-23 13:45:00,
2013-01-23 08:50:00,48.0,36.0,30.30,North,355,3.0,5.0,64,0.00,,,0.00,Meteo,2013-01-23 13:50:00,
2013-01-23 08:55:00,49.0,37.0,30.30,North,355,3.0,5.0,63,0.00,,,0.00,Meteo,2013-01-23 13:55:00,
2013-01-23 09:00:00,50.0,37.0,30.30,NNW,348,5.0,7.0,61,0.00,,,0.00,Meteo,2013-01-23 14:00:00,
2013-01-23 09:05:00,50.0,37.0,30.30,North,355,3.0,6.0,60,0.00,,,0.00,Meteo,2013-01-23 14:05:00,
2013-01-23 09:10:00,51.0,37.0,30.30,North,354,5.0,7.0,59,0.00,,,0.00,Meteo,2013-01-23 14:10:00,
2013-01-23 09:15:00,51.0,38.0,30.30,North,358,3.0,6.0,61,0.00,,,0.00,Meteo,2013-01-23 14:15:00,
2013-01-23 09:20:00,52.0,39.0,30.30,North,356,5.0,6.0,61,0.00,,,0.00,Meteo,2013-01-23 14:20:00,
2013-01-23 09:25:00,53.0,39.0,30.30,North,354,4.0,6.0,58,0.00,,,0.00,Meteo,2013-01-23 14:25:00,
2013-01-23 09:31:00,53.0,39.0,30.30,NNW,348,3.0,6.0,59,0.00,,,0.00,Meteo,2013-01-23 14:31:00,
2013-01-23 09:36:00,54.0,40.0,30.30,North,355,5.0,8.0,60,0.00,,,0.00,Meteo,2013-01-23 14:36:00,
2013-01-23 09:41:00,54.0,39.0,30.30,North,352,3.0,6.0,57,0.00,,,0.00,Meteo,2013-01-23 14:41:00,
2013-01-23 09:46:00,55.0,40.0,30.30,North,352,3.0,4.0,57,0.00,,,0.00,Meteo,2013-01-23 14:46:00,
2013-01-23 09:51:00,56.0,41.0,30.30,NNE,33,2.0,3.0,58,0.00,,,0.00,Meteo,2013-01-23 14:51:00,
2013-01-23 09:56:00,56.0,41.0,30.30,NE,34,2.0,7.0,58,0.00,,,0.00,Meteo,2013-01-23 14:56:00,
2013-01-23 10:01:00,57.0,41.0,30.30,North,2,2.0,4.0,56,0.00,,,0.00,Meteo,2013-01-23 15:01:00,
2013-01-23 10:06:00,58.0,42.0,30.30,NNE,32,4.0,6.0,56,0.00,,,0.00,Meteo,2013-01-23 15:06:00,
2013-01-23 10:11:00,59.0,42.0,30.30,NNE,30,2.0,4.0,54,0.00,,,0.00,Meteo,2013-01-23 15:11:00,
2013-01-23 10:16:00,60.0,44.0,30.30,ENE,72,2.0,3.0,56,0.00,,,0.00,Meteo,2013-01-23 15:16:00,
2013-01-23 10:21:00,61.0,43.0,30.30,NNE,16,2.0,4.0,52,0.00,,,0.00,Meteo,2013-01-23 15:21:00,
2013-01-23 10:26:00,62.0,45.0,30.30,NE,41,2.0,3.0,53,0.00,,,0.00,Meteo,2013-01-23 15:26:00,
2013-01-23 10:31:00,62.0,43.0,30.31,NNE,12,1.0,4.0,50,0.00,,,0.00,Meteo,2013-01-23 15:31:00,
2013-01-23 10:36:00,62.0,42.0,30.31,North,355,3.0,6.0,48,0.00,,,0.00,Meteo,2013-01-23 15:36:00,
2013-01-23 10:41:00,62.0,40.0,30.31,North,360,5.0,7.0,45,0.00,,,0.00,Meteo,2013-01-23 15:41:00,
2013-01-23 10:46:00,63.0,38.0,30.30,North,7,4.0,6.0,40,0.00,,,0.00,Meteo,2013-01-23 15:46:00,
2013-01-23 10:51:00,63.0,41.0,30.30,North,355,2.0,3.0,44,0.00,,,0.00,Meteo,2013-01-23 15:51:00,
2013-01-23 10:56:00,63.0,42.0,30.30,NNE,24,2.0,4.0,47,0.00,,,0.00,Meteo,2013-01-23 15:56:00,
2013-01-23 11:01:00,64.0,40.0,30.30,NNE,17,0.0,1.0,42,0.00,,,0.00,Meteo,2013-01-23 16:01:00,
2013-01-23 11:06:00,65.0,39.0,30.30,North,351,6.0,7.0,39,0.00,,,0.00,Meteo,2013-01-23 16:06:00,
2013-01-23 11:11:00,65.0,40.0,30.30,NNE,13,3.0,6.0,40,0.00,,,0.00,Meteo,2013-01-23 16:11:00,
2013-01-23 11:16:00,65.0,39.0,30.30,North,359,3.0,7.0,39,0.00,,,0.00,Meteo,2013-01-23 16:16:00,
2013-01-23 11:21:00,65.0,39.0,30.30,North,354,3.0,5.0,38,0.00,,,0.00,Meteo,2013-01-23 16:21:00,
2013-01-23 11:26:00,65.0,40.0,30.30,NE,39,1.0,2.0,40,0.00,,,0.00,Meteo,2013-01-23 16:26:00,
2013-01-23 11:31:00,65.0,39.0,30.30,North,359,3.0,6.0,39,0.00,,,0.00,Meteo,2013-01-23 16:31:00,
2013-01-23 11:36:00,65.0,39.0,30.30,North,356,6.0,7.0,38,0.00,,,0.00,Meteo,2013-01-23 16:36:00,
2013-01-23 11:42:00,65.0,38.0,30.30,NW,317,2.0,5.0,37,0.00,,,0.00,Meteo,2013-01-23 16:42:00,
2013-01-23 11:53:00,66.0,38.0,30.29,North,354,4.0,6.0,36,0.00,,,0.00,Meteo,2013-01-23 16:53:00,
2013-01-23 11:58:00,66.0,38.0,30.29,North,355,3.0,7.0,36,0.00,,,0.00,Meteo,2013-01-23 16:58:00,
2013-01-23 12:03:00,67.0,39.0,30.28,North,7,3.0,7.0,36,0.00,,,0.00,Meteo,2013-01-23 17:03:00,
2013-01-23 12:08:00,67.0,37.0,30.28,North,354,6.0,10.0,33,0.00,,,0.00,Meteo,2013-01-23 17:08:00,
2013-01-23 12:13:00,66.0,35.0,30.28,NNW,347,4.0,6.0,32,0.00,,,0.00,Meteo,2013-01-23 17:13:00,
2013-01-23 12:18:00,66.0,37.0,30.28,North,352,8.0,11.0,34,0.00,,,0.00,Meteo,2013-01-23 17:18:00,
2013-01-23 12:23:00,66.0,36.0,30.28,NNE,15,3.0,7.0,33,0.00,,,0.00,Meteo,2013-01-23 17:23:00,
2013-01-23 12:28:00,67.0,37.0,30.28,North,355,4.0,8.0,33,0.00,,,0.00,Meteo,2013-01-23 17:28:00,
2013-01-23 12:33:00,67.0,35.0,30.27,North,352,4.0,6.0,31,0.00,,,0.00,Meteo,2013-01-23 17:33:00,
2013-01-23 12:38:00,66.0,37.0,30.27,North,356,6.0,8.0,34,0.00,,,0.00,Meteo,2013-01-23 17:38:00,
2013-01-23 12:43:00,66.0,38.0,30.27,NNW,345,3.0,6.0,35,0.00,,,0.00,Meteo,2013-01-23 17:43:00,
2013-01-23 12:48:00,67.0,38.0,30.26,NW,326,5.0,7.0,34,0.00,,,0.00,Meteo,2013-01-23 17:48:00,
2013-01-23 12:53:00,67.0,37.0,30.26,North,352,2.0,3.0,33,0.00,,,0.00,Meteo,2013-01-23 17:53:00,
2013-01-23 12:58:00,67.0,39.0,30.26,North,2,2.0,4.0,36,0.00,,,0.00,Meteo,2013-01-23 17:58:00,
2013-01-23 13:03:00,67.0,37.0,30.26,NNE,24,4.0,7.0,33,0.00,,,0.00,Meteo,2013-01-23 18:03:00,
2013-01-23 13:08:00,67.0,38.0,30.26,North,357,6.0,8.0,34,0.00,,,0.00,Meteo,2013-01-23 18:08:00,
2013-01-23 13:13:00,68.0,38.0,30.26,North,358,5.0,8.0,33,0.00,,,0.00,Meteo,2013-01-23 18:13:00,
2013-01-23 13:18:00,68.0,36.0,30.25,North,353,3.0,4.0,31,0.00,,,0.00,Meteo,2013-01-23 18:18:00,
2013-01-23 13:23:00,68.0,39.0,30.25,ENE,65,0.0,1.0,34,0.00,,,0.00,Meteo,2013-01-23 18:23:00,
2013-01-23 13:28:00,68.0,39.0,30.25,North,8,2.0,5.0,34,0.00,,,0.00,Meteo,2013-01-23 18:28:00,
2013-01-23 13:33:00,68.0,39.0,30.24,North,354,6.0,8.0,34,0.00,,,0.00,Meteo,2013-01-23 18:33:00,
2013-01-23 13:38:00,68.0,39.0,30.24,NNE,23,1.0,4.0,34,0.00,,,0.00,Meteo,2013-01-23 18:38:00,
2013-01-23 13:43:00,68.0,37.0,30.24,North,356,3.0,6.0,32,0.00,,,0.00,Meteo,2013-01-23 18:43:00,
2013-01-23 13:48:00,68.0,37.0,30.23,North,3,2.0,5.0,32,0.00,,,0.00,Meteo,2013-01-23 18:48:00,
2013-01-23 13:53:00,67.0,36.0,30.23,NNW,329,1.0,2.0,32,0.00,,,0.00,Meteo,2013-01-23 18:53:00,
2013-01-23 13:58:00,68.0,36.0,30.23,NNW,342,5.0,10.0,31,0.00,,,0.00,Meteo,2013-01-23 18:58:00,
2013-01-23 14:03:00,67.0,36.0,30.23,North,352,6.0,8.0,32,0.00,,,0.00,Meteo,2013-01-23 19:03:00,
2013-01-23 14:08:00,67.0,35.0,30.23,North,349,4.0,6.0,31,0.00,,,0.00,Meteo,2013-01-23 19:08:00,
2013-01-23 14:13:00,67.0,37.0,30.23,NNE,17,2.0,3.0,33,0.00,,,0.00,Meteo,2013-01-23 19:13:00,
2013-01-23 14:18:00,68.0,35.0,30.22,NNW,347,5.0,6.0,30,0.00,,,0.00,Meteo,2013-01-23 19:18:00,
2013-01-23 14:23:00,68.0,36.0,30.22,NNW,337,4.0,7.0,31,0.00,,,0.00,Meteo,2013-01-23 19:23:00,
2013-01-23 14:28:00,68.0,35.0,30.22,NNW,335,1.0,2.0,30,0.00,,,0.00,Meteo,2013-01-23 19:28:00,
2013-01-23 14:33:00,68.0,34.0,30.22,NNW,347,3.0,3.0,28,0.00,,,0.00,Meteo,2013-01-23 19:33:00,
2013-01-23 14:38:00,67.0,33.0,30.22,North,0,0.0,0.0,28,0.00,,,0.00,Meteo,2013-01-23 19:38:00,
2013-01-23 14:43:00,67.0,35.0,30.22,NNE,16,3.0,6.0,31,0.00,,,0.00,Meteo,2013-01-23 19:43:00,
2013-01-23 14:48:00,67.0,35.0,30.21,North,1,3.0,6.0,30,0.00,,,0.00,Meteo,2013-01-23 19:48:00,
2013-01-23 14:53:00,68.0,35.0,30.21,NE,37,3.0,6.0,30,0.00,,,0.00,Meteo,2013-01-23 19:53:00,
2013-01-23 14:58:00,68.0,32.0,30.21,North,354,4.0,7.0,26,0.00,,,0.00,Meteo,2013-01-23 19:58:00,
2013-01-23 15:03:00,68.0,33.0,30.21,North,355,1.0,3.0,27,0.00,,,0.00,Meteo,2013-01-23 20:03:00,
2013-01-23 15:08:00,68.0,33.0,30.21,WNW,302,1.0,2.0,27,0.00,,,0.00,Meteo,2013-01-23 20:08:00,
2013-01-23 15:13:00,68.0,34.0,30.21,NNW,347,1.0,2.0,28,0.00,,,0.00,Meteo,2013-01-23 20:13:00,
2013-01-23 15:18:00,67.0,32.0,30.21,West,271,1.0,2.0,27,0.00,,,0.00,Meteo,2013-01-23 20:18:00,
2013-01-23 15:23:00,67.0,35.0,30.21,North,352,5.0,6.0,30,0.00,,,0.00,Meteo,2013-01-23 20:23:00,
2013-01-23 15:28:00,67.0,33.0,30.21,NNW,346,0.0,1.0,28,0.00,,,0.00,Meteo,2013-01-23 20:28:00,
2013-01-23 15:33:00,67.0,33.0,30.22,NNE,29,2.0,5.0,28,0.00,,,0.00,Meteo,2013-01-23 20:33:00,
2013-01-23 15:38:00,67.0,32.0,30.22,NNW,345,5.0,8.0,27,0.00,,,0.00,Meteo,2013-01-23 20:38:00,
2013-01-23 15:43:00,67.0,32.0,30.22,North,357,1.0,2.0,27,0.00,,,0.00,Meteo,2013-01-23 20:43:00,
2013-01-23 15:48:00,67.0,31.0,30.22,North,354,1.0,3.0,26,0.00,,,0.00,Meteo,2013-01-23 20:48:00,
2013-01-23 15:53:00,67.0,31.0,30.22,West,280,3.0,4.0,26,0.00,,,0.00,Meteo,2013-01-23 20:53:00,
2013-01-23 15:58:00,67.0,32.0,30.22,NW,305,2.0,5.0,27,0.00,,,0.00,Meteo,2013-01-23 20:58:00,
2013-01-23 16:03:00,67.0,32.0,30.22,NNW,344,3.0,6.0,27,0.00,,,0.00,Meteo,2013-01-23 21:03:00,
2013-01-23 16:08:00,67.0,31.0,30.22,North,357,2.0,4.0,26,0.00,,,0.00,Meteo,2013-01-23 21:08:00,
2013-01-23 16:13:00,67.0,32.0,30.22,North,355,1.0,5.0,27,0.00,,,0.00,Meteo,2013-01-23 21:13:00,
2013-01-23 16:18:00,67.0,31.0,30.22,WNW,283,2.0,3.0,26,0.00,,,0.00,Meteo,2013-01-23 21:18:00,
2013-01-23 16:23:00,67.0,32.0,30.22,NW,323,4.0,6.0,27,0.00,,,0.00,Meteo,2013-01-23 21:23:00,
2013-01-23 16:28:00,67.0,32.0,30.22,NNW,341,2.0,3.0,27,0.00,,,0.00,Meteo,2013-01-23 21:28:00,
2013-01-23 16:33:00,66.0,31.0,30.22,North,351,3.0,6.0,27,0.00,,,0.00,Meteo,2013-01-23 21:33:00,
2013-01-23 16:38:00,66.0,32.0,30.22,NW,324,1.0,2.0,28,0.00,,,0.00,Meteo,2013-01-23 21:38:00,
2013-01-23 16:43:00,66.0,32.0,30.22,NNW,345,1.0,3.0,28,0.00,,,0.00,Meteo,2013-01-23 21:43:00,
2013-01-23 16:48:00,66.0,31.0,30.22,NNW,345,2.0,3.0,27,0.00,,,0.00,Meteo,2013-01-23 21:48:00,
2013-01-23 16:53:00,66.0,32.0,30.22,North,0,0.0,0.0,28,0.00,,,0.00,Meteo,2013-01-23 21:53:00,
2013-01-23 16:58:00,65.0,31.0,30.22,NNW,332,3.0,6.0,28,0.00,,,0.00,Meteo,2013-01-23 21:58:00,
2013-01-23 17:03:00,65.0,32.0,30.23,North,354,2.0,3.0,29,0.00,,,0.00,Meteo,2013-01-23 22:03:00,
2013-01-23 17:08:00,65.0,34.0,30.23,North,0,0.0,0.0,31,0.00,,,0.00,Meteo,2013-01-23 22:08:00,
2013-01-23 17:13:00,65.0,41.0,30.23,East,83,1.0,3.0,42,0.00,,,0.00,Meteo,2013-01-23 22:13:00,
2013-01-23 17:18:00,64.0,44.0,30.23,ENE,76,1.0,2.0,48,0.00,,,0.00,Meteo,2013-01-23 22:18:00,
2013-01-23 17:23:00,64.0,44.0,30.23,East,79,3.0,7.0,49,0.00,,,0.00,Meteo,2013-01-23 22:23:00,
2013-01-23 17:29:00,63.0,45.0,30.23,ENE,60,2.0,4.0,51,0.00,,,0.00,Meteo,2013-01-23 22:29:00,
2013-01-23 17:34:00,62.0,44.0,30.23,ENE,62,2.0,5.0,52,0.00,,,0.00,Meteo,2013-01-23 22:34:00,
2013-01-23 17:39:00,62.0,45.0,30.23,ENE,60,2.0,5.0,53,0.00,,,0.00,Meteo,2013-01-23 22:39:00,
2013-01-23 17:44:00,61.0,44.0,30.23,ENE,67,1.0,3.0,54,0.00,,,0.00,Meteo,2013-01-23 22:44:00,
2013-01-23 17:49:00,61.0,45.0,30.24,ENE,74,1.0,3.0,55,0.00,,,0.00,Meteo,2013-01-23 22:49:00,
2013-01-23 17:54:00,60.0,44.0,30.24,ENE,77,1.0,3.0,55,0.00,,,0.00,Meteo,2013-01-23 22:54:00,
2013-01-23 17:59:00,60.0,45.0,30.24,East,87,0.0,1.0,57,0.00,,,0.00,Meteo,2013-01-23 22:59:00,
2013-01-23 18:04:00,59.0,44.0,30.24,ENE,66,2.0,2.0,58,0.00,,,0.00,Meteo,2013-01-23 23:04:00,
2013-01-23 18:09:00,58.0,43.0,30.24,ENE,73,1.0,2.0,58,0.00,,,0.00,Meteo,2013-01-23 23:09:00,
2013-01-23 18:14:00,58.0,44.0,30.24,ENE,73,1.0,2.0,60,0.00,,,0.00,Meteo,2013-01-23 23:14:00,
2013-01-23 18:19:00,57.0,44.0,30.24,ENE,73,0.0,2.0,61,0.00,,,0.00,Meteo,2013-01-23 23:19:00,
2013-01-23 18:24:00,57.0,44.0,30.24,North,0,0.0,0.0,62,0.00,,,0.00,Meteo,2013-01-23 23:24:00,
2013-01-23 18:29:00,56.0,44.0,30.24,North,0,0.0,0.0,63,0.00,,,0.00,Meteo,2013-01-23 23:29:00,
2013-01-23 18:34:00,56.0,44.0,30.25,North,0,0.0,0.0,64,0.00,,,0.00,Meteo,2013-01-23 23:34:00,
2013-01-23 18:39:00,55.0,43.0,30.25,North,0,0.0,0.0,65,0.00,,,0.00,Meteo,2013-01-23 23:39:00,
2013-01-23 18:44:00,55.0,44.0,30.25,ENE,74,0.0,1.0,66,0.00,,,0.00,Meteo,2013-01-23 23:44:00,
2013-01-23 18:49:00,54.0,43.0,30.25,North,0,0.0,0.0,67,0.00,,,0.00,Meteo,2013-01-23 23:49:00,
2013-01-23 18:54:00,54.0,44.0,30.25,North,0,0.0,0.0,68,0.00,,,0.00,Meteo,2013-01-23 23:54:00,
2013-01-23 18:59:00,53.0,43.0,30.25,ENE,73,0.0,2.0,69,0.00,,,0.00,Meteo,2013-01-23 23:59:00,
2013-01-23 19:04:00,53.0,44.0,30.25,ENE,73,1.0,2.0,71,0.00,,,0.00,Meteo,2013-01-24 00:04:00,
2013-01-23 19:09:00,52.0,43.0,30.25,ENE,70,0.0,1.0,71,0.00,,,0.00,Meteo,2013-01-24 00:09:00,
2013-01-23 19:14:00,52.0,44.0,30.25,ENE,73,1.0,2.0,73,0.00,,,0.00,Meteo,2013-01-24 00:14:00,
2013-01-23 19:19:00,52.0,44.0,30.26,ENE,74,1.0,2.0,74,0.00,,,0.00,Meteo,2013-01-24 00:19:00,
2013-01-23 19:24:00,51.0,43.0,30.26,ENE,73,0.0,1.0,75,0.00,,,0.00,Meteo,2013-01-24 00:24:00,
2013-01-23 19:29:00,51.0,44.0,30.26,North,0,0.0,0.0,77,0.00,,,0.00,Meteo,2013-01-24 00:29:00,
2013-01-23 19:34:00,51.0,44.0,30.26,ENE,74,0.0,1.0,77,0.00,,,0.00,Meteo,2013-01-24 00:34:00,
2013-01-23 19:39:00,50.0,43.0,30.26,North,0,0.0,0.0,78,0.00,,,0.00,Meteo,2013-01-24 00:39:00,
2013-01-23 19:44:00,50.0,43.0,30.26,North,0,0.0,0.0,78,0.00,,,0.00,Meteo,2013-01-24 00:44:00,
2013-01-23 19:49:00,50.0,43.0,30.26,North,0,0.0,0.0,78,0.00,,,0.00,Meteo,2013-01-24 00:49:00,
2013-01-23 19:54:00,50.0,44.0,30.26,North,0,0.0,0.0,79,0.00,,,0.00,Meteo,2013-01-24 00:54:00,
2013-01-23 19:59:00,49.0,43.0,30.26,North,0,0.0,0.0,79,0.00,,,0.00,Meteo,2013-01-24 00:59:00,
2013-01-23 20:04:00,49.0,43.0,30.26,North,0,0.0,0.0,79,0.00,,,0.00,Meteo,2013-01-24 01:04:00,
2013-01-23 20:09:00,49.0,43.0,30.26,North,0,0.0,0.0,80,0.00,,,0.00,Meteo,2013-01-24 01:09:00,
2013-01-23 20:14:00,49.0,43.0,30.26,North,0,0.0,0.0,80,0.00,,,0.00,Meteo,2013-01-24 01:14:00,
2013-01-23 20:19:00,49.0,43.0,30.26,North,0,0.0,0.0,80,0.00,,,0.00,Meteo,2013-01-24 01:19:00,
2013-01-23 20:24:00,49.0,43.0,30.26,North,0,0.0,0.0,81,0.00,,,0.00,Meteo,2013-01-24 01:24:00,
2013-01-23 20:29:00,48.0,42.0,30.26,North,0,0.0,0.0,81,0.00,,,0.00,Meteo,2013-01-24 01:29:00,
2013-01-23 20:34:00,48.0,43.0,30.26,North,0,0.0,0.0,82,0.00,,,0.00,Meteo,2013-01-24 01:34:00,
2013-01-23 20:39:00,48.0,43.0,30.26,North,0,0.0,0.0,82,0.00,,,0.00,Meteo,2013-01-24 01:39:00,
2013-01-23 20:44:00,48.0,43.0,30.26,ENE,74,2.0,2.0,83,0.00,,,0.00,Meteo,2013-01-24 01:44:00,
2013-01-23 20:49:00,48.0,43.0,30.25,ENE,74,1.0,1.0,84,0.00,,,0.00,Meteo,2013-01-24 01:49:00,
2013-01-23 20:54:00,47.0,42.0,30.25,North,0,0.0,0.0,83,0.00,,,0.00,Meteo,2013-01-24 01:54:00,
2013-01-23 20:59:00,47.0,42.0,30.25,North,0,0.0,0.0,83,0.00,,,0.00,Meteo,2013-01-24 01:59:00,
2013-01-23 21:04:00,47.0,42.0,30.25,North,0,0.0,0.0,84,0.00,,,0.00,Meteo,2013-01-24 02:04:00,
2013-01-23 21:09:00,47.0,42.0,30.25,North,0,0.0,0.0,84,0.00,,,0.00,Meteo,2013-01-24 02:09:00,
2013-01-23 21:14:00,47.0,42.0,30.25,North,0,0.0,0.0,84,0.00,,,0.00,Meteo,2013-01-24 02:14:00,
2013-01-23 21:19:00,46.0,42.0,30.25,North,0,0.0,0.0,85,0.00,,,0.00,Meteo,2013-01-24 02:19:00,
2013-01-23 21:24:00,46.0,42.0,30.25,North,0,0.0,0.0,86,0.00,,,0.00,Meteo,2013-01-24 02:24:00,
2013-01-23 21:29:00,46.0,42.0,30.25,North,0,0.0,0.0,87,0.00,,,0.00,Meteo,2013-01-24 02:29:00,
2013-01-23 21:34:00,46.0,42.0,30.25,ENE,74,0.0,1.0,87,0.00,,,0.00,Meteo,2013-01-24 02:34:00,
2013-01-23 21:39:00,46.0,42.0,30.25,North,0,0.0,0.0,87,0.00,,,0.00,Meteo,2013-01-24 02:39:00,
2013-01-23 21:44:00,46.0,43.0,30.25,ENE,75,0.0,1.0,88,0.00,,,0.00,Meteo,2013-01-24 02:44:00,
2013-01-23 21:49:00,46.0,43.0,30.25,North,0,0.0,0.0,88,0.00,,,0.00,Meteo,2013-01-24 02:49:00,
2013-01-23 21:54:00,45.0,42.0,30.25,North,0,0.0,0.0,88,0.00,,,0.00,Meteo,2013-01-24 02:54:00,
2013-01-23 21:59:00,45.0,42.0,30.25,North,0,0.0,0.0,89,0.00,,,0.00,Meteo,2013-01-24 02:59:00,
2013-01-23 22:04:00,45.0,42.0,30.25,North,0,0.0,0.0,89,0.00,,,0.00,Meteo,2013-01-24 03:04:00,
2013-01-23 22:09:00,45.0,42.0,30.25,North,0,0.0,0.0,90,0.00,,,0.00,Meteo,2013-01-24 03:09:00,
2013-01-23 22:14:00,45.0,42.0,30.25,North,0,0.0,0.0,90,0.00,,,0.00,Meteo,2013-01-24 03:14:00,
2013-01-23 22:19:00,45.0,43.0,30.26,ENE,75,0.0,2.0,91,0.00,,,0.00,Meteo,2013-01-24 03:19:00,
2013-01-23 22:24:00,45.0,43.0,30.26,North,0,0.0,0.0,91,0.00,,,0.00,Meteo,2013-01-24 03:24:00,
2013-01-23 22:29:00,45.0,43.0,30.26,North,0,0.0,0.0,91,0.00,,,0.00,Meteo,2013-01-24 03:29:00,
2013-01-23 22:34:00,45.0,43.0,30.26,North,0,0.0,0.0,92,0.00,,,0.00,Meteo,2013-01-24 03:34:00,
2013-01-23 22:39:00,45.0,43.0,30.26,North,0,0.0,0.0,92,0.00,,,0.00,Meteo,2013-01-24 03:39:00,
2013-01-23 22:44:00,44.0,42.0,30.26,North,0,0.0,0.0,92,0.00,,,0.00,Meteo,2013-01-24 03:44:00,
2013-01-23 22:49:00,44.0,42.0,30.26,North,0,0.0,0.0,92,0.00,,,0.00,Meteo,2013-01-24 03:49:00,
2013-01-23 22:54:00,44.0,42.0,30.26,North,0,0.0,0.0,92,0.00,,,0.00,Meteo,2013-01-24 03:54:00,
2013-01-23 22:59:00,44.0,42.0,30.26,North,0,0.0,0.0,92,0.00,,,0.00,Meteo,2013-01-24 03:59:00,
2013-01-23 23:04:00,44.0,42.0,30.25,North,0,0.0,0.0,93,0.00,,,0.00,Meteo,2013-01-24 04:04:00,
2013-01-23 23:09:00,44.0,42.0,30.25,North,0,0.0,0.0,93,0.00,,,0.00,Meteo,2013-01-24 04:09:00,
2013-01-23 23:14:00,44.0,42.0,30.25,North,0,0.0,0.0,93,0.00,,,0.00,Meteo,2013-01-24 04:14:00,
2013-01-23 23:19:00,44.0,42.0,30.25,North,0,0.0,0.0,93,0.00,,,0.00,Meteo,2013-01-24 04:19:00,
2013-01-23 23:24:00,43.0,41.0,30.25,North,0,0.0,0.0,93,0.00,,,0.00,Meteo,2013-01-24 04:24:00,
2013-01-23 23:29:00,43.0,41.0,30.25,North,0,0.0,0.0,94,0.00,,,0.00,Meteo,2013-01-24 04:29:00,
2013-01-23 23:34:00,43.0,41.0,30.25,North,0,0.0,0.0,94,0.00,,,0.00,Meteo,2013-01-24 04:34:00,
2013-01-23 23:39:00,43.0,41.0,30.25,North,0,0.0,0.0,94,0.00,,,0.00,Meteo,2013-01-24 04:39:00,
2013-01-23 23:44:00,43.0,41.0,30.25,North,0,0.0,0.0,94,0.00,,,0.00,Meteo,2013-01-24 04:44:00,
2013-01-23 23:49:00,43.0,41.0,30.25,North,0,0.0,0.0,94,0.00,,,0.00,Meteo,2013-01-24 04:49:00,
2013-01-23 23:54:00,43.0,42.0,30.25,North,0,0.0,0.0,95,0.00,,,0.00,Meteo,2013-01-24 04:54:00,
2013-01-23 23:59:00,43.0,42.0,30.25,North,0,0.0,0.0,95,0.00,,,0.00,Meteo,2013-01-24 04:59:00,